Hourly Data Report for April 07, 2005

TORONTO CITY
ONTARIO

43°40'00.000" N
79°24'00.000" W
112.50 m
6158355
71508
XTO

Download Data

Hourly Data (April 2005)
Hourly Data Report for April 7, 2005
TIME
LST
Temp Definition
°C
Dew Point Definition
°C
Rel Hum Definition
%
Precip. Amount Definition
mm

Wind Dir Definition
10's deg

Wind Spd Definition
km/h
Visibility Definition
km
Stn Press Definition
kPa
Hmdx Definition


Wind Chill Definition


Weather Definition


00:00 9.3 2.2 61   LegendMM LegendMM   99.95     LegendNANA
01:00 9.3 2.1 61   LegendMM LegendMM   99.83     LegendNANA
02:00 9.0 2.2 62   LegendMM LegendMM   99.73     LegendNANA
03:00 9.2 2.9 65   LegendMM LegendMM   99.66     LegendNANA
04:00 9.3 3.3 66   LegendMM LegendMM   99.65     LegendNANA
05:00 8.7 3.6 70   LegendMM LegendMM   99.64     LegendNANA
06:00 8.9 3.9 71   LegendMM LegendMM   99.59     LegendNANA
07:00 7.7 3.8 76   LegendMM LegendMM   99.57     LegendNANA
08:00 7.2 3.7 78   LegendMM LegendMM   99.58     LegendNANA
09:00 7.3 3.8 78   LegendMM LegendMM   99.47     LegendNANA
10:00 9.1 5.1 76   LegendMM LegendMM   99.49     LegendNANA
11:00 8.4 6.0 85   LegendMM LegendMM   99.53     LegendNANA
12:00 9.2 8.2 93   LegendMM LegendMM   99.41     LegendNANA
13:00 10.4 8.6 89   LegendMM LegendMM   99.52     LegendNANA
14:00 9.5 6.6 82   LegendMM LegendMM   99.59     LegendNANA
15:00 10.0 6.1 77   LegendMM LegendMM   99.61     LegendNANA
16:00 9.2 5.7 79   LegendMM LegendMM   99.67     LegendNANA
17:00 8.8 5.2 78   LegendMM LegendMM   99.74     LegendNANA
18:00 7.7 4.2 78   LegendMM LegendMM   99.86     LegendNANA
19:00 7.3 4.1 80   LegendMM LegendMM   99.91     LegendNANA
20:00 7.0 3.8 80   LegendMM LegendMM   99.99     LegendNANA
21:00 6.6 3.5 81   LegendMM LegendMM   100.04     LegendNANA
22:00 6.6 3.3 79   LegendMM LegendMM   100.06     LegendNANA
23:00 5.6 3.0 83   LegendMM LegendMM   100.10     LegendNANA

Notes on Data Quality.

Legend

  • E = Estimated
  • M = Missing
  • NA = Not Available*
  • [empty] = Indicates an unobserved value
Date modified: